[TLELIST] Archives

 

[TLELIST] Current TLEs

March 25th 2024 PDT

HST 1 20580U 90037B 24084.72001000 .00014303 00000-0 70514-3 0 9993 2 20580 28.4682 190.5053 0002582 181.7702 178.2881 15.16455504664190 ISS (ZARYA) 1 25544U 98067A 24085.31186315 .00092744 00000-0 16427-2 0 9995 2 25544 51.6423 11.1916 0004753 2.5905 140.5675 15.49490802445533 CXO 1 25867U 99040B 24085.89196829 .00001102 00000-0 00000-0 0 9995 2 25867 39.4333 162.0906 8959336 290.3893 0.3900 0.37814546 14258 ...Continue Reading

[TLELIST] Current TLEs

March 25th 2024 PDT

HST 1 20580U 90037B 24084.72001000 .00014303 00000-0 70514-3 0 9993 2 20580 28.4682 190.5053 0002582 181.7702 178.2881 15.16455504664190 ISS (ZARYA) 1 25544U 98067A 24085.31186315 .00092744 00000-0 16427-2 0 9995 2 25544 51.6423 11.1916 0004753 2.5905 140.5675 15.49490802445533 CXO 1 25867U 99040B 24085.89196829 .00001102 00000-0 00000-0 0 9995 2 25867 39.4333 162.0906 8959336 290.3893 0.3900 0.37814546 14258 ...Continue Reading

[TLELIST] Current TLEs

March 24th 2024 PDT

HST 1 20580U 90037B 24083.73282190 .00010945 00000-0 53793-3 0 9992 2 20580 28.4680 197.1058 0002733 171.7625 188.3012 15.16429824664045 ISS (ZARYA) 1 25544U 98067A 24084.40176104 .00066645 00000-0 11898-2 0 9997 2 25544 51.6410 15.6979 0004152 358.3697 104.9762 15.49417556445390 CXO 1 25867U 99040B 24085.89196829 .00001102 00000-0 00000-0 0 9995 2 25867 39.4333 162.0906 8959336 290.3893 0.3900 0.37814546 14258 ...Continue Reading

[TLELIST] Current TLEs

March 23rd 2024 PDT

HST 1 20580U 90037B 24082.67980631 .00008578 00000-0 41993-3 0 9997 2 20580 28.4679 204.1471 0002728 159.8389 200.2311 15.16405016663883 ISS (ZARYA) 1 25544U 98067A 24083.43487593 .00028911 00000-0 52506-3 0 9992 2 25544 51.6407 20.4792 0004536 358.7668 108.0188 15.49314288445240 CXO 1 25867U 99040B 24083.24716407 .00001067 00000-0 00000-0 0 9992 2 25867 39.3879 162.3587 8963356 290.1866 0.3340 0.37810857 14243 ...Continue Reading

[TLELIST] Current TLEs

March 22nd 2024 PDT

HST 1 20580U 90037B 24081.75840455 .00008727 00000-0 42757-3 0 9999 2 20580 28.4677 210.3076 0002789 149.9681 210.1071 15.16388655663740 ISS (ZARYA) 1 25544U 98067A 24082.40146262 .00022433 00000-0 41057-3 0 9995 2 25544 51.6421 25.5937 0004653 356.2285 102.9584 15.49243647445086 CXO 1 25867U 99040B 24083.24716407 .00001067 00000-0 00000-0 0 9992 2 25867 39.3879 162.3587 8963356 290.1866 0.3340 0.37810857 14243 ...Continue Reading

[TLELIST] Current TLEs

March 21st 2024 PDT

HST 1 20580U 90037B 24080.77117636 .00008602 00000-0 42152-3 0 9999 2 20580 28.4674 216.9078 0002851 140.4241 219.6559 15.16372834663599 ISS (ZARYA) 1 25544U 98067A 24081.37726329 .00021618 00000-0 39666-3 0 9995 2 25544 51.6422 30.6623 0004539 350.6026 152.6572 15.49195992444920 CXO 1 25867U 99040B 24083.24716407 .00001067 00000-0 00000-0 0 9992 2 25867 39.3879 162.3587 8963356 290.1866 0.3340 0.37810857 14243 ...Continue Reading

[TLELIST] Current TLEs

March 20th 2024 PDT

HST 1 20580U 90037B 24079.52067206 .00007490 00000-0 36603-3 0 9995 2 20580 28.4672 225.2680 0002999 130.5041 229.5813 15.16351955663404 ISS (ZARYA) 1 25544U 98067A 24080.34304414 .00021639 00000-0 39767-3 0 9993 2 25544 51.6418 35.7824 0004337 347.1090 144.4797 15.49150751444766 CXO 1 25867U 99040B 24077.95735726 .00000953 00000-0 00000-0 0 9991 2 25867 39.2952 162.9220 8968218 289.7402 0.2585 0.37807900 14229 ...Continue Reading

[TLELIST] Current TLEs

March 19th 2024 PDT

HST 1 20580U 90037B 24078.79668839 .00006073 00000-0 29512-3 0 9999 2 20580 28.4672 230.1085 0003086 123.9692 236.1194 15.16339821663295 ISS (ZARYA) 1 25544U 98067A 24079.31390819 .00013368 00000-0 24956-3 0 9996 2 25544 51.6413 40.8708 0004547 344.4739 163.9632 15.49090766444608 CXO 1 25867U 99040B 24077.95735726 .00000953 00000-0 00000-0 0 9991 2 25867 39.2952 162.9220 8968218 289.7402 0.2585 0.37807900 14229 ...Continue Reading

[TLELIST] Current TLEs

March 18th 2024 PDT

HST 1 20580U 90037B 24077.87524792 .00005440 00000-0 26343-3 0 9992 2 20580 28.4672 236.2699 0003113 113.4830 246.6089 15.16328192663155 ISS (ZARYA) 1 25544U 98067A 24078.34081363 .00012870 00000-0 24081-3 0 9995 2 25544 51.6410 45.6851 0004512 340.5510 137.6656 15.49062275444454 CXO 1 25867U 99040B 24077.95735726 .00000953 00000-0 00000-0 0 9991 2 25867 39.2952 162.9220 8968218 289.7402 0.2585 0.37807900 14229 ...Continue Reading

[TLELIST] Current TLEs

March 17th 2024 PDT

HST 1 20580U 90037B 24076.88798267 .00005675 00000-0 27532-3 0 9993 2 20580 28.4672 242.8710 0003102 102.4100 257.6839 15.16317785663003 ISS (ZARYA) 1 25544U 98067A 24077.37954097 .00012332 00000-0 23132-3 0 9999 2 25544 51.6407 50.4427 0004452 336.3967 177.6659 15.49035261444301 CXO 1 25867U 99040B 24077.95735726 .00000953 00000-0 00000-0 0 9991 2 25867 39.2952 162.9220 8968218 289.7402 0.2585 0.37807900 14229 ...Continue Reading
  • This mailing list is a public mailing list - anyone may join or leave, at any time.
  • This mailing list is announce-only.

International Space Station (ISS) / Hubble Space Telescope (HST) / Chandra X-Ray Observatory Orbital Data via EMAIL

Privacy Policy:

Private list